Lapse_Rate
5.8 5.2 5.3 5.8 5.4 5.8 6.1 6.3 6.4 6.8 7.3 7.9 7.4 8.1 7.5 7.5 6.7 7.7 7.9 7.7 7.7 7.7 7.0 5.8 5.8 5.8 5.9 6.3 6.4 6.4 5.7 5.7 5.8 6.0 5.9 6.0 6.0 6.0 6.0 5.9 5.9 5.9 5.5 5.6
5.2 4.9 6.5 6.0 6.0 5.9 6.3 6.4 6.6 7.6 7.5 8.4 8.2 8.4 8.4 7.8 7.9 8.3 7.6 8.3 7.3 7.4 7.1 6.4 5.6 5.6 5.7 6.5 6.5 6.3 5.9 5.6 5.9 6.0 5.9 5.9 5.9 5.9 5.7 5.8 5.8 5.9 5.8 5.6
5.3 5.9 6.0 6.0 6.1 5.9 6.2 6.4 7.1 7.1 7.8 8.1 8.7 8.2 8.0 7.3 7.9 8.0 7.3 8.1 8.2 7.8 7.4 6.8 6.3 5.7 5.5 6.4 6.9 6.7 6.2 5.9 5.9 6.0 5.9 5.9 6.0 5.9 5.8 6.0 6.1 5.9 5.9 6.0
5.5 6.2 6.0 6.3 6.2 6.2 6.0 7.0 7.3 7.4 7.5 7.5 8.5 8.1 7.9 8.2 7.2 7.6 7.6 7.7 7.7 8.1 7.8 7.2 6.9 6.0 6.5 6.4 6.7 6.5 6.1 5.9 6.1 6.0 6.0 6.2 6.4 6.3 6.1 6.0 6.0 5.9 5.9 6.0
5.2 5.7 6.0 5.7 6.3 6.1 5.9 7.3 7.2 7.6 7.4 7.9 8.1 8.5 8.8 8.3 7.9 7.6 7.8 8.1 7.6 8.5 8.2 7.6 7.2 7.0 7.0 6.2 6.3 6.7 6.3 6.0 6.1 6.1 6.1 6.2 6.2 6.2 6.1 5.9 5.9 6.1 6.1 6.1
5.9 6.2 6.4 6.4 6.5 6.5 6.6 7.2 7.5 7.8 7.9 7.6 8.2 8.0 8.2 7.2 7.4 8.1 8.4 8.3 7.9 8.3 8.4 7.9 7.1 6.6 6.6 6.7 6.1 6.2 6.3 6.2 6.3 6.3 6.2 6.2 6.3 6.3 6.1 6.0 6.0 6.2 6.2 6.2
6.1 6.3 6.4 7.0 7.1 6.9 7.0 7.3 7.5 7.1 7.4 7.0 8.0 8.0 7.6 7.8 8.0 8.2 8.7 8.6 8.4 8.8 8.7 8.8 7.4 6.9 6.5 6.7 6.4 6.5 6.6 6.4 6.4 6.3 6.3 6.2 6.3 6.2 6.2 6.1 6.1 6.1 6.1 6.2
6.0 6.3 6.3 7.1 6.9 7.6 7.0 7.2 7.1 6.3 6.7 7.4 7.3 7.2 7.4 8.2 8.9 8.8 9.1 9.1 9.0 8.9 8.6 8.9 8.3 7.5 7.1 6.9 6.5 6.5 6.7 6.7 6.6 6.4 6.4 6.3 6.3 6.4 6.3 6.2 6.2 6.2 6.2 6.1
4.1 5.8 6.9 7.1 7.2 7.4 7.8 6.9 7.6 7.9 7.8 7.9 7.6 7.7 7.7 8.6 8.6 9.0 9.1 9.0 8.8 9.0 8.7 8.9 8.8 7.8 7.6 7.2 7.1 6.8 6.9 6.8 6.8 6.8 6.4 6.4 6.6 6.5 6.5 6.3 6.3 6.3 6.2 6.1
3.2 2.8 6.9 7.4 7.9 7.7 7.1 7.6 7.5 7.4 6.4 6.2 7.1 7.9 7.8 8.0 8.0 8.6 8.8 8.9 8.5 8.8 9.0 8.7 8.7 8.6 7.7 7.5 7.2 7.1 6.9 7.0 7.0 6.8 6.6 6.7 6.8 6.5 6.2 6.2 6.3 6.3 6.3 6.2
3.4 2.0 6.0 7.9 8.0 7.0 7.2 7.5 8.0 8.3 7.6 6.6 5.5 6.9 7.6 8.2 8.6 8.7 9.1 8.9 8.5 8.1 8.8 9.1 9.1 8.9 8.1 7.8 7.2 7.2 6.8 6.7 6.7 6.7 6.7 6.6 6.7 6.7 6.5 6.4 6.3 6.4 6.3 6.5
4.4 2.5 3.6 7.1 7.2 7.4 8.3 7.7 8.6 8.3 7.1 8.0 7.7 6.5 8.3 9.1 9.1 9.2 9.3 9.5 9.1 8.9 8.8 9.1 9.4 8.9 8.4 7.8 7.2 7.0 6.9 6.8 7.1 7.2 7.0 6.8 6.5 6.6 6.6 6.5 6.5 6.5 6.6 6.6
4.5 4.2 3.1 6.4 7.1 7.8 8.2 8.5 8.1 8.0 8.5 8.0 7.2 7.1 8.6 8.6 8.5 9.0 9.3 9.6 9.4 9.3 9.0 8.7 9.2 9.0 8.7 7.8 7.6 7.3 7.0 7.1 7.2 7.2 7.1 6.9 6.8 6.7 6.8 6.8 6.7 6.7 6.6 6.6
4.0 3.8 3.1 3.2 6.2 7.0 7.5 8.0 8.4 8.7 8.6 7.7 7.4 8.1 8.2 8.9 9.0 9.1 9.3 9.5 9.4 9.3 9.2 8.8 9.2 9.1 8.8 8.3 7.9 7.9 7.4 7.0 7.2 7.3 7.3 7.3 7.2 7.1 7.0 6.9 7.0 6.8 6.6 6.6
3.6 3.3 4.3 4.3 4.6 5.8 6.8 8.0 8.8 8.5 8.7 8.1 7.7 8.1 8.5 8.8 8.7 8.5 9.5 9.5 9.5 9.5 9.5 9.2 9.0 8.9 8.7 9.0 8.5 8.0 8.0 7.4 7.2 7.4 7.7 7.8 7.5 7.4 7.3 7.3 7.2 7.1 6.9 6.9
3.7 4.0 3.3 5.5 6.4 6.8 7.2 8.0 8.8 8.9 8.8 8.6 8.2 8.2 8.7 8.6 8.6 9.0 9.5 9.4 9.4 9.4 9.5 9.3 9.4 9.1 8.7 8.8 9.1 8.5 8.3 7.9 7.6 7.4 7.7 7.7 7.6 7.6 7.6 7.5 7.4 7.4 7.4 7.5
3.9 3.7 3.0 5.3 7.6 7.8 8.2 8.4 8.9 9.0 9.1 9.2 8.6 8.3 8.8 8.9 9.1 9.1 9.1 9.2 9.3 9.4 9.3 9.4 9.3 8.8 8.7 8.9 8.8 8.9 8.6 8.3 8.2 8.1 7.9 8.0 8.0 7.9 8.0 7.9 7.8 7.9 7.8 7.8
3.9 3.7 3.2 5.8 7.3 7.3 7.1 7.7 8.3 8.2 8.4 8.8 8.3 9.1 9.0 8.9 9.2 9.4 9.3 9.3 9.4 9.3 9.0 8.9 9.0 8.7 8.6 8.9 9.0 9.2 8.6 8.5 8.7 9.0 8.7 8.4 8.3 8.3 8.4 8.3 8.3 8.3 8.5 8.5
4.0 3.8 4.1 5.7 6.5 7.8 8.3 7.3 6.7 5.9 6.3 7.1 8.1 8.9 9.0 9.0 9.2 8.9 8.7 8.9 9.0 8.7 8.3 8.0 8.3 8.2 8.2 8.1 8.3 8.5 8.4 8.5 8.6 8.8 9.0 9.0 8.9 8.8 8.6 8.7 8.7 8.6 8.5 8.5
4.2 3.7 3.9 5.2 5.9 6.0 4.5 5.8 6.9 6.4 6.0 6.0 7.3 7.5 8.2 8.4 9.2 8.6 8.3 8.4 8.3 8.1 8.0 8.0 7.8 7.6 7.6 7.7 7.8 8.2 8.5 8.5 8.4 8.6 8.9 8.9 8.8 8.9 9.1 9.0 8.8 8.8 8.8 8.7
3.9 3.9 5.3 5.9 5.3 4.9 4.2 5.3 5.8 5.5 4.7 5.3 5.7 6.5 7.8 7.6 7.6 8.1 8.1 8.2 8.3 8.2 8.0 8.2 8.0 7.6 7.5 7.5 7.6 7.7 7.9 8.4 8.4 8.2 8.1 8.4 8.6 8.9 9.1 9.1 8.9 9.0 9.1 9.1
4.1 4.1 4.0 4.8 4.4 4.1 3.8 4.8 4.6 4.2 4.3 5.1 5.2 5.2 5.7 5.9 6.5 7.7 7.9 7.7 8.2 8.2 8.1 8.3 8.4 8.2 8.2 8.0 7.9 7.8 7.9 7.9 8.1 8.1 8.1 8.3 8.6 8.6 8.6 8.6 8.7 8.8 8.9 9.1
4.5 3.2 3.4 3.7 3.5 3.5 3.5 3.5 4.2 4.2 4.6 5.3 5.1 5.1 4.6 5.0 5.6 6.8 7.1 7.6 7.8 8.2 8.5 8.5 8.6 8.6 8.6 8.4 8.1 7.7 7.5 7.6 7.6 7.7 7.7 7.7 7.9 8.2 8.4 8.5 8.5 8.5 8.7 8.7
4.7 4.3 3.9 4.3 3.9 4.2 4.2 3.5 3.9 4.6 4.0 4.6 4.9 4.7 4.3 4.7 5.0 6.0 6.8 7.3 7.4 7.7 8.2 8.3 8.2 7.9 7.7 7.8 7.9 7.6 7.3 7.1 7.3 7.4 7.4 7.5 7.7 7.9 8.0 8.1 8.1 8.0 7.9 8.0
4.9 4.5 4.6 5.4 5.1 4.9 4.6 4.3 4.1 4.4 4.8 4.6 4.2 3.9 4.3 4.5 5.3 5.9 6.7 7.1 7.3 7.0 7.3 7.5 7.8 7.6 7.7 7.7 7.8 7.7 7.5 7.3 7.2 7.1 7.2 7.2 7.4 7.7 7.6 7.4 7.4 7.3 7.3 7.4
4.5 4.6 4.1 5.0 5.2 5.5 5.8 4.7 4.2 4.7 4.8 4.7 3.8 3.9 3.7 4.3 4.7 5.8 6.7 7.0 6.8 6.7 6.3 6.8 6.9 7.0 7.1 7.3 7.4 7.4 7.5 7.6 7.5 7.2 7.1 7.1 7.2 7.2 7.2 7.0 7.0 7.1 7.2 7.4
Wind_Speed
8 10 16 23 12 6 6 7 10 6 10 25 21 22 20 27 21 23 23 21 21 23 23 19 18 18 15 15 18 20 18 13 10 5 4 3 4 2 2 4 13 12 13 14
4 18 18 6 9 11 14 11 14 15 12 10 17 19 23 27 28 29 25 23 24 22 23 22 21 20 17 17 20 20 20 16 11 9 7 3 3 2 2 4 9 15 14 14
19 7 15 15 14 15 15 16 16 11 6 8 7 6 19 23 23 22 23 27 26 25 28 25 24 22 19 19 21 20 20 18 15 12 5 2 3 2 1 2 3 6 14 15
16 20 19 17 21 18 16 20 18 17 7 5 6 12 9 23 19 23 24 22 23 24 24 25 26 24 22 22 21 20 20 19 15 14 12 11 8 7 4 4 3 5 14 13
17 21 24 22 26 20 19 14 14 17 5 2 15 6 11 28 23 23 24 23 19 23 24 22 28 27 24 22 20 19 19 19 16 16 15 12 9 6 4 3 5 6 7 14
15 12 21 27 17 20 13 11 9 6 4 10 16 6 9 21 29 29 28 21 20 22 23 23 24 22 22 21 20 19 18 19 18 18 16 16 14 8 7 5 5 4 5 6
18 22 23 13 19 14 13 7 7 4 7 9 9 6 13 26 29 35 36 25 25 24 25 25 24 23 20 22 23 20 21 18 18 19 17 16 14 12 11 8 6 6 4 3
15 19 23 21 12 19 14 11 6 9 5 7 6 9 12 12 17 35 37 32 29 23 21 24 26 25 23 23 24 23 22 21 19 19 18 16 14 10 10 10 5 6 6 6
9 16 4 20 19 15 11 18 11 5 2 4 4 5 9 12 7 22 26 25 25 26 25 25 25 26 25 22 25 25 23 21 20 20 16 14 14 15 13 9 7 5 6 6
5 9 12 28 11 20 18 9 9 4 12 5 5 6 10 11 12 14 29 29 30 26 26 22 24 26 24 23 23 24 23 24 21 19 17 15 15 13 11 9 9 9 7 8
9 5 13 4 10 23 4 15 6 7 6 10 4 10 8 11 12 10 20 31 31 31 27 23 22 24 25 22 21 22 21 22 19 19 18 17 14 14 10 11 11 11 8 8
9 6 7 10 12 4 21 8 10 9 10 3 4 12 6 12 12 11 14 28 30 30 28 24 22 25 22 21 20 20 20 20 20 19 17 16 15 15 14 14 12 13 12 9
8 3 8 10 4 3 5 12 10 7 6 10 13 15 6 6 8 13 19 19 30 30 29 26 21 22 21 22 20 20 20 21 19 18 18 17 16 16 16 16 16 12 12 12
8 4 9 8 9 10 5 12 9 17 8 10 11 11 7 15 14 16 10 14 22 28 29 27 23 23 21 22 21 20 20 19 19 18 18 18 17 17 16 16 16 15 12 12
2 8 11 20 27 25 24 12 13 14 14 14 11 7 9 9 12 9 5 10 17 25 28 27 25 22 21 20 20 18 19 19 20 19 19 19 18 18 16 15 16 15 15 13
3 5 15 23 18 18 18 6 7 13 17 6 8 8 8 6 10 6 7 14 17 23 28 28 28 26 23 22 21 19 19 20 20 20 20 19 17 17 18 17 16 16 15 15
5 4 6 6 6 6 5 13 7 6 7 9 11 10 4 8 9 15 7 14 10 9 21 25 26 25 23 22 21 20 19 18 18 18 18 18 17 17 18 16 16 16 16 15
8 9 4 5 8 6 8 20 15 19 21 20 12 10 14 16 15 20 17 16 17 15 13 9 8 7 8 13 16 15 13 16 17 17 17 16 16 17 16 16 16 16 14 16
12 8 4 3 4 4 11 18 13 6 17 22 19 5 17 17 26 18 16 15 12 11 7 6 8 9 9 7 9 14 14 15 15 16 17 16 17 16 16 16 16 16 14 15
11 10 7 4 2 4 13 27 29 4 17 21 21 21 16 11 14 5 10 11 11 12 9 9 7 8 9 5 7 9 12 13 15 16 15 15 15 17 18 17 17 15 15 15
4 7 5 4 3 5 21 27 16 10 5 12 16 15 16 14 3 3 7 14 10 11 12 8 9 8 5 5 7 8 7 9 11 7 10 12 16 17 17 16 15 14 14 14
3 1 4 7 5 5 17 11 8 5 10 17 13 11 9 7 9 11 14 15 15 16 15 15 11 10 7 6 7 6 4 3 4 8 8 8 10 11 11 15 13 14 14 14
5 4 1 3 2 4 1 4 4 9 10 14 16 16 12 7 7 10 10 12 12 13 13 13 11 11 9 12 8 11 7 6 3 4 6 7 8 9 9 11 11 9 11 11
10 13 4 7 4 11 14 8 9 14 14 13 12 15 14 10 8 8 9 10 10 11 12 10 13 14 13 6 8 7 7 7 7 6 4 2 6 7 7 8 8 9 9 10
6 6 10 8 6 12 3 8 15 22 18 17 13 9 12 12 13 6 7 8 8 8 10 10 10 10 11 11 6 6 6 7 6 6 6 6 4 6 4 4 2 4 3 7
8 6 4 4 13 13 20 21 20 17 19 18 13 17 11 8 9 8 6 6 6 8 9 11 8 7 9 10 8 7 7 7 6 5 5 4 4 3 5 6 4 12 10 9
Wind_Direction
195 188 206 213 209 239 252 216 243 250 202 188 206 218 176 177 175 177 185 187 190 190 196 206 204 200 196 174 178 182 179 183 167 164 162 174 188 222 158 191 194 197 180 165
164 217 218 196 196 211 235 246 252 267 266 179 210 218 176 178 184 184 180 190 197 191 193 199 201 207 201 181 181 183 183 179 181 177 182 171 159 191 194 166 205 187 186 175
204 230 204 203 222 218 226 229 246 235 297 293 165 194 167 202 184 184 187 196 190 190 188 193 201 201 202 186 183 182 183 182 183 181 153 106 92 62 198 219 195 185 188 180
225 232 201 206 219 210 222 227 240 255 249 244 203 235 170 185 186 191 193 196 197 192 183 189 198 203 199 189 185 179 182 183 182 172 177 181 192 195 207 201 176 187 188 189
220 203 218 213 213 206 224 231 231 248 224 195 271 223 225 176 181 199 205 212 208 196 192 183 192 198 196 182 184 180 179 181 179 181 181 184 189 196 181 194 199 182 194 191
230 235 206 228 225 225 209 225 244 242 192 242 248 228 243 180 186 202 213 211 210 200 197 198 191 182 186 184 179 178 176 182 180 182 184 185 188 184 194 194 197 189 189 196
228 236 231 212 216 211 223 160 228 260 227 233 219 221 241 181 197 196 209 209 207 203 198 196 190 188 179 182 182 181 180 182 183 185 185 187 187 189 195 194 195 178 184 178
216 231 224 216 208 203 221 196 166 210 207 222 216 207 240 228 190 197 203 201 199 204 202 202 193 189 185 183 182 185 187 187 183 187 190 187 180 194 203 205 190 197 194 197
339 237 219 222 217 191 202 215 185 126 212 173 219 210 269 255 176 187 199 196 200 211 199 202 195 193 190 182 185 185 188 191 189 190 188 188 193 198 204 200 191 191 189 194
321 294 239 234 232 217 202 159 188 178 220 241 262 210 212 227 242 176 192 198 201 209 203 200 192 193 194 187 187 185 188 189 190 191 194 197 194 194 201 192 194 200 192 199
325 257 299 292 214 219 174 205 194 161 162 225 228 245 198 219 231 217 179 193 198 202 204 200 194 191 196 188 184 186 186 189 190 193 195 198 199 200 191 198 203 210 204 193
331 297 289 248 246 299 222 187 185 204 213 199 191 256 208 214 218 227 227 193 197 196 198 202 193 190 191 188 184 187 188 188 192 192 192 195 195 197 199 204 205 209 211 210
8 343 314 308 23 260 208 211 196 175 142 198 219 255 244 249 237 227 230 184 190 195 192 197 187 188 189 191 187 188 187 191 191 189 191 195 197 196 203 209 211 208 210 213
356 271 251 279 305 322 278 224 201 193 196 198 219 251 282 284 285 297 237 178 170 189 187 189 184 188 187 191 191 189 191 189 188 189 193 195 196 197 201 206 210 209 206 208
303 265 261 258 264 272 262 251 209 202 193 196 222 203 247 264 275 261 180 145 158 174 178 181 183 186 187 190 194 190 191 188 185 189 194 198 198 199 200 202 208 209 209 209
232 267 307 288 257 227 242 243 266 211 202 149 190 238 240 251 292 99 103 140 159 168 177 181 182 182 183 187 191 189 189 189 187 192 196 197 196 198 203 205 203 206 208 211
193 261 335 267 314 188 71 356 8 205 166 187 202 227 151 57 351 21 13 88 107 120 182 184 185 183 183 185 187 189 190 186 190 193 197 197 198 199 204 203 206 205 208 207
217 242 223 266 310 148 128 35 35 52 38 14 348 335 112 105 75 48 34 57 72 78 77 81 114 131 161 185 186 190 182 190 193 195 194 197 196 201 204 203 206 211 208 210
207 253 272 264 268 157 21 3 343 357 38 17 4 96 121 112 71 36 17 35 45 56 53 59 74 88 92 105 166 179 184 190 194 202 200 196 196 198 202 204 205 210 211 214
215 279 242 315 336 68 2 337 336 143 39 8 16 29 34 37 79 21 347 25 35 46 45 46 46 64 68 58 112 160 190 191 203 204 204 198 193 199 205 203 206 207 212 216
223 272 237 247 97 76 355 342 350 65 37 21 13 31 36 57 27 280 5 31 32 35 43 30 35 57 51 56 93 110 142 198 210 216 208 201 199 201 206 204 208 208 211 217
44 332 356 340 59 54 349 354 60 301 360 10 1 15 34 38 27 30 35 27 21 26 26 26 30 21 4 34 91 100 93 193 179 173 174 192 204 207 205 204 205 209 209 214
57 22 288 25 184 178 57 308 284 9 11 5 351 352 343 33 27 35 33 24 16 19 19 21 23 20 18 49 59 63 12 13 17 146 190 206 197 192 186 193 200 199 202 210
5 4 34 322 132 2 316 303 359 357 348 341 336 335 355 357 25 30 29 21 12 10 12 4 22 22 11 6 78 85 53 38 34 350 307 226 203 199 199 199 194 195 196 206
11 343 318 286 282 331 1 340 334 321 324 318 317 315 342 358 356 21 21 13 4 359 3 5 12 9 1 352 24 74 73 63 31 356 328 291 234 206 167 83 13 217 184 215
3 339 330 280 286 279 272 287 289 296 301 297 308 313 333 355 352 350 1 358 356 352 356 357 355 356 352 349 342 3 32 46 39 1 339 305 273 201 141 144 115 46 34 20